[[{"header":{"parameterUnit":"m.s-1","parameterCategory":1,"la1":30.2991,"la2":30.254,"lo1":-89.0895,"lo2":-89.0444,"dy":0.0017,"dx":0.0017,"nx":28,"ny":28,"refTime":"2023-08-31T09:00:00:Z","depth":0,"parameterNumber":2,"parameterNumberName":"U-component_of_WINDS"},"data":[0,0,0,0,0,0,0,0,0,0,0,0,0,0,0,0,0,0,0,0,0,0,0,0,0,0,0,0,0,0,0,0,0,0,0,0,0,0,0,0,0,0,0,0,0,0,0,0,0,0,0,0,0,0,0,0,0,0,-1.0207,-1.0206,0,-1.014,-1.014,-1.0139,-1.005,-1.0049,-1.0047,-1.0046,-0.998,-0.9979,-0.9979,0,0,0,0,0,0,0,0,0,0,0,0,0,-1.0259,-1.0258,-1.0207,-1.0206,-1.0205,-1.014,-1.014,-1.0139,-1.0051,-1.0049,-1.0047,-1.0045,-0.998,-0.9979,-0.9979,0,0,0,0,0,0,0,0,0,0,0,0,0,-1.0219,-1.0258,-1.0207,-1.0153,-1.0148,-1.0141,-1.0139,-1.0138,-1.0051,-1.0049,-1.0046,-1.0044,-0.998,-0.998,-0.9979,-1.002,0,0,-0.9977,-0.9977,0,0,0,0,0,0,0,0,-1.0221,-1.0217,-1.0162,-1.0157,-1.0151,-1.0101,-1.0133,-1.0099,-1.0051,-1.0088,-1.0046,-1.0043,-1.0022,-1.0018,-1.001,-1.0016,-1.0014,-0.9977,-0.9977,-0.9977,-0.9976,0,0,0,0,0,0,0,-1.0224,-1.0219,-1.018,-1.0161,-1.0154,-1.0133,-1.0125,-1.0126,-1.0068,-1.0084,-1.0078,-1.0071,-1.0019,-1.0011,-1.0008,-1.0013,-0.9977,-0.9977,-0.9976,-0.9976,-1.0049,-1.0051,0,0,0,0,0,0,-1.0235,-1.0222,-1.0183,-1.0178,-1.0181,-1.0134,-1.0125,-1.0119,-1.0068,-1.0058,-1.0073,-1.0067,-1.0013,-1.0009,-1.0006,-1.005,-0.9977,-0.9976,-0.9976,-1.0047,-1.0049,-1.0052,0,0,0,0,0,0,-1.0236,-1.0232,-1.0185,-1.0198,-1.0191,-1.0135,-1.013,-1.0119,-1.0112,-1.0059,-1.0049,-1.0076,-1.0011,-1.0006,-1.0017,-1.0046,-0.9976,-0.9975,-1.0044,-1.0048,-1.0051,-1.0139,0,0,0,0,0,0,-1.0238,-1.0233,-1.0247,-1.0199,-1.0191,-1.0197,-1.0132,-1.012,-1.0111,-1.0102,-1.0059,-1.005,-1.0009,-1.0018,-1.0016,-1.0044,-0.9975,-1.0041,-1.0046,-1.005,-1.0134,-1.0145,-1.0156,0,0,0,0,0,-1.024,-1.0275,-1.0249,-1.0244,-1.0207,-1.0199,-1.0194,-1.0146,-1.0113,-1.0128,-1.0094,-1.0051,-1.0043,-1.002,-1.0017,-1.0046,-1.0039,-1.0044,-1.0049,-1.0129,-1.0143,-1.0155,0,0,0,0,0,0,-1.0329,-1.0268,-1.0238,-1.0259,-1.0235,-1.0184,-1.0201,-1.0163,-1.0148,-1.0141,-1.0082,-1.0073,-1.0091,-1.0069,-1.0044,-1.0082,-1.0035,-1.004,-1.0096,-1.0109,-1.012,-1.0126,-0.9974,0,0,0,0,0,-1.0351,-1.0349,-1.0296,-1.0319,-1.0309,-1.0257,-1.0252,-1.0217,-1.019,-1.0179,-1.0146,-1.0123,-1.0114,-1.0111,-1.01,-1.013,-1.0119,-1.0148,-1.0159,-1.0168,-1.0173,-1.0188,-1.02,-1.0069,-1.0069,-1.0069,0,0,-1.0396,-1.0363,-1.0365,-1.0336,-1.0314,-1.0313,-1.0249,-1.0252,-1.0251,-1.018,-1.0188,-1.0163,-1.0132,-1.0152,-1.016,-1.0135,-1.0207,-1.0175,-1.0183,-1.0183,-1.0194,-1.0207,-1.0218,-1.0072,-1.0072,-1.0071,0,0,-1.0479,-1.0453,-1.047,-1.0449,-1.0415,-1.038,-1.0385,-1.034,-1.0321,-1.0327,-1.0274,-1.0272,-1.026,-1.024,-1.0229,-1.0304,-1.0265,-1.0302,-1.036,-1.0375,-1.0385,-1.0394,-1.0422,-1.0433,-1.0308,-1.0308,-1.0308,0,-1.054,-1.0537,-1.0484,-1.049,-1.0479,-1.0414,-1.0431,-1.0412,-1.0378,-1.0372,-1.0344,-1.0327,-1.0302,-1.0317,-1.0335,-1.0328,-1.0331,-1.0308,-1.0388,-1.0397,-1.0404,-1.043,-1.044,-1.0313,-1.0312,-1.0312,-1.0311,0,-1.0614,-1.0613,-1.0631,-1.0598,-1.0589,-1.0601,-1.055,-1.0547,-1.0513,-1.0481,-1.0489,-1.0456,-1.0439,-1.0439,-1.0406,-1.045,-1.0435,-1.0399,-1.035,-1.0422,-1.0446,-1.0455,-1.032,-1.0318,-1.0317,-1.0315,0,0,-1.0752,-1.0689,-1.0697,-1.0682,-1.0639,-1.0638,-1.0646,-1.0628,-1.0627,-1.0605,-1.0612,-1.0602,-1.0568,-1.0555,-1.0519,-1.0532,-1.0595,-1.0493,-1.0492,-1.0514,-1.0642,-1.067,-1.0683,-1.0568,-1.0569,-1.0571,-1.0644,0,-1.0828,-1.0838,-1.0791,-1.0814,-1.0813,-1.0751,-1.0758,-1.0734,-1.0704,-1.0699,-1.0667,-1.0662,-1.0616,-1.0608,-1.0618,-1.0585,-1.062,-1.0579,-1.0574,-1.0574,-1.0584,-1.0694,-1.0724,-1.0796,-1.0653,-1.0655,-1.0656,0,-1.0917,-1.09,-1.0923,-1.088,-1.0877,-1.0885,-1.0865,-1.086,-1.0831,-1.0809,-1.0795,-1.0753,-1.0759,-1.0712,-1.0719,-1.0693,-1.0688,-1.0671,-1.0673,-1.0671,-1.062,-1.0697,-1.0817,-1.0829,-1.0669,-1.0668,-1.0667,0,-1.1017,-1.0999,-1.101,-1.0999,-1.0949,-1.0955,-1.0935,-1.0903,-1.0896,-1.0878,-1.0873,-1.0856,-1.0848,-1.0836,-1.0791,-1.0761,-1.0805,-1.0754,-1.0787,-1.0789,-1.08,-1.08,-1.0923,-1.0796,-1.0795,-1.0795,-1.0795,0,-1.1107,-1.1124,-1.1054,-1.1062,-1.1079,-1.1024,-1.1043,-1.1016,-1.0989,-1.099,-1.0935,-1.0938,-1.0878,-1.0874,-1.0839,-1.0851,-1.0848,-1.0831,-1.0821,-1.0836,-1.0838,-1.0833,-1.0827,-1.0798,-1.0797,-1.0797,-1.0796,0,-1.1221,-1.1175,-1.1184,-1.1135,-1.1123,-1.1138,-1.1097,-1.1102,-1.1069,-1.1072,-1.1069,-1.1018,-1.1011,-1.0964,-1.0947,-1.0923,-1.0948,-1.0929,-1.0958,-1.0952,-1.0989,-1.0987,-1.1113,-1.1127,-1.099,-1.0992,-1.0993,0,-1.1282,-1.1293,-1.1246,-1.1243,-1.1224,-1.122,-1.1212,-1.1158,-1.1152,-1.1119,-1.1129,-1.1117,-1.1104,-1.1096,-1.1058,-1.1044,-1.1024,-1.1069,-1.1022,-1.1036,-1.1026,-1.1026,-1.1027,-1.108,-1.1082,-1.1083,-1.1084,0,-1.1395,-1.1372,-1.1361,-1.1344,-1.1335,-1.1319,-1.1299,-1.1299,-1.124,-1.1236,-1.1227,-1.1218,-1.1199,-1.1189,-1.1168,-1.1147,-1.1107,-1.1099,-1.1106,-1.1122,-1.1139,-1.1131,-1.0987,-1.1097,-1.1096,-1.1095,-1.1094,-1.1093,-1.1485,-1.1492,-1.146,-1.1451,-1.143,-1.1413,-1.1415,-1.1382,-1.1374,-1.1355,-1.1324,-1.132,-1.1291,-1.1259,-1.1241,-1.1238,-1.1214,-1.1224,-1.1227,-1.1231,-1.1239,-1.1139,-1.1234,-1.1234,-1.1233,-1.1233,-1.1232,0,-1.1596,-1.1572,-1.1564,-1.1538,-1.1531,-1.1491,-1.1467,-1.1464,-1.1461,-1.1437,-1.1426,-1.1417,-1.1406,-1.1367,-1.1352,-1.1357,-1.1338,-1.1355,-1.1355,-1.1351,-1.1261,-1.1256,-1.1371,-1.1371,-1.1371,-1.1371,-1.1371,-1.1371,-1.1653,-1.1664,-1.1637,-1.1637,-1.1613,-1.1608,-1.1598,-1.1582,-1.1563,-1.1555,-1.1545,-1.1519,-1.1489,-1.1472,-1.146,-1.1449,-1.1447,-1.147,-1.1453,-1.137,-1.1357,-1.1344,-1.134,-1.147,-1.147,-1.1543,-1.1544,-1.1545]},{"header":{"parameterUnit":"m.s-1","parameterCategory":1,"la1":30.2991,"la2":30.254,"lo1":-89.0895,"lo2":-89.0444,"dy":0.0017,"dx":0.0017,"nx":28,"ny":28,"refTime":"2023-08-31T09:00:00:Z","depth":0,"parameterNumber":3,"parameterNumberName":"V-component_of_WINDS"},"data":[0,0,0,0,0,0,0,0,0,0,0,0,0,0,0,0,0,0,0,0,0,0,0,0,0,0,0,0,0,0,0,0,0,0,0,0,0,0,0,0,0,0,0,0,0,0,0,0,0,0,0,0,0,0,0,0,0,0,-0.9705,-0.9705,0,-0.9646,-0.9645,-0.9645,-0.9604,-0.9603,-0.9603,-0.9603,-0.9539,-0.9538,-0.9536,0,0,0,0,0,0,0,0,0,0,0,0,0,-0.9781,-0.978,-0.9705,-0.9705,-0.9704,-0.9646,-0.9645,-0.9645,-0.9604,-0.9603,-0.9603,-0.9603,-0.954,-0.9538,-0.9536,0,0,0,0,0,0,0,0,0,0,0,0,0,-0.9737,-0.9779,-0.9706,-0.9677,-0.9674,-0.9646,-0.9645,-0.9644,-0.9604,-0.9603,-0.9603,-0.9603,-0.954,-0.9538,-0.9536,-0.9532,0,0,-0.953,-0.9529,0,0,0,0,0,0,0,0,-0.974,-0.9735,-0.9682,-0.9679,-0.9675,-0.9632,-0.9649,-0.9607,-0.9604,-0.963,-0.9603,-0.9602,-0.957,-0.9566,-0.9555,-0.9529,-0.9526,-0.9529,-0.9528,-0.9527,-0.9527,0,0,0,0,0,0,0,-0.9743,-0.9737,-0.9682,-0.9681,-0.9677,-0.9666,-0.9659,-0.964,-0.9603,-0.9628,-0.9625,-0.9619,-0.9568,-0.9558,-0.9554,-0.9525,-0.9529,-0.9528,-0.9526,-0.9525,-0.9494,-0.9494,0,0,0,0,0,0,-0.9751,-0.974,-0.9684,-0.968,-0.9707,-0.9665,-0.9658,-0.9646,-0.9604,-0.9597,-0.9619,-0.9617,-0.9561,-0.9556,-0.9551,-0.9545,-0.9527,-0.9525,-0.9524,-0.9493,-0.9494,-0.9494,0,0,0,0,0,0,-0.9753,-0.9746,-0.9686,-0.9709,-0.9701,-0.9664,-0.9652,-0.9645,-0.9635,-0.9597,-0.959,-0.9615,-0.9561,-0.9554,-0.9538,-0.9542,-0.9524,-0.9522,-0.9493,-0.9494,-0.9494,-0.9531,0,0,0,0,0,0,-0.9755,-0.9747,-0.9746,-0.9709,-0.97,-0.9674,-0.9652,-0.9644,-0.9631,-0.9628,-0.9591,-0.9585,-0.956,-0.9541,-0.9536,-0.9539,-0.9521,-0.9492,-0.9493,-0.9494,-0.953,-0.9533,-0.9536,0,0,0,0,0,-0.9758,-0.9758,-0.9746,-0.9739,-0.9697,-0.9675,-0.9669,-0.9642,-0.9632,-0.963,-0.9606,-0.9586,-0.9542,-0.954,-0.9533,-0.9536,-0.9492,-0.9493,-0.9494,-0.9528,-0.9533,-0.9536,0,0,0,0,0,0,-0.9794,-0.9752,-0.9739,-0.9727,-0.9705,-0.9668,-0.9665,-0.9647,-0.9626,-0.9624,-0.9589,-0.9581,-0.9569,-0.955,-0.9548,-0.953,-0.9515,-0.9514,-0.9543,-0.9547,-0.955,-0.9555,-0.9519,0,0,0,0,0,-0.9801,-0.9787,-0.9751,-0.9744,-0.9734,-0.9701,-0.969,-0.9671,-0.9646,-0.9637,-0.9611,-0.9587,-0.9568,-0.9556,-0.9536,-0.9526,-0.9518,-0.9525,-0.9528,-0.9531,-0.9532,-0.9526,-0.9529,-0.9498,-0.9498,-0.9498,0,0,-0.9814,-0.979,-0.9783,-0.9751,-0.9731,-0.9717,-0.9693,-0.9679,-0.9668,-0.9634,-0.9618,-0.9598,-0.9569,-0.9556,-0.9549,-0.954,-0.9539,-0.9533,-0.9535,-0.9534,-0.9528,-0.9531,-0.9534,-0.9498,-0.9498,-0.9498,0,0,-0.9832,-0.9812,-0.9805,-0.9786,-0.9758,-0.9736,-0.9735,-0.9701,-0.9687,-0.967,-0.9644,-0.963,-0.9598,-0.9579,-0.9565,-0.9577,-0.9558,-0.9571,-0.9589,-0.9584,-0.9587,-0.9589,-0.9594,-0.9596,-0.9571,-0.9571,-0.9571,0,-0.9853,-0.9832,-0.9803,-0.9791,-0.9778,-0.9747,-0.974,-0.9722,-0.9689,-0.968,-0.9671,-0.9631,-0.9608,-0.9592,-0.9595,-0.9584,-0.9581,-0.9575,-0.9589,-0.959,-0.9592,-0.9597,-0.9599,-0.9573,-0.9573,-0.9573,-0.9573,0,-0.9858,-0.9844,-0.9841,-0.9811,-0.9797,-0.9788,-0.9757,-0.9747,-0.9729,-0.9708,-0.9692,-0.9665,-0.964,-0.9634,-0.9615,-0.9614,-0.961,-0.9595,-0.9579,-0.9597,-0.9601,-0.9603,-0.9576,-0.9575,-0.9575,-0.9574,0,0,-0.9897,-0.9853,-0.9852,-0.9839,-0.9806,-0.9794,-0.9782,-0.9759,-0.9751,-0.9729,-0.9719,-0.9693,-0.9679,-0.9663,-0.9642,-0.9638,-0.9651,-0.9624,-0.9622,-0.9631,-0.9649,-0.9662,-0.9664,-0.9638,-0.9638,-0.9638,-0.9652,0,-0.9911,-0.9891,-0.9866,-0.9854,-0.984,-0.9812,-0.9802,-0.978,-0.9761,-0.9746,-0.9724,-0.9707,-0.9689,-0.968,-0.9674,-0.9651,-0.9654,-0.9649,-0.9628,-0.9628,-0.9638,-0.9666,-0.9679,-0.9694,-0.9653,-0.9654,-0.9654,0,-0.9925,-0.9906,-0.9893,-0.9862,-0.9856,-0.9848,-0.9825,-0.9811,-0.9786,-0.9772,-0.9756,-0.9734,-0.972,-0.9705,-0.9687,-0.9684,-0.9673,-0.9661,-0.966,-0.9658,-0.9643,-0.9666,-0.9697,-0.97,-0.9656,-0.9656,-0.9655,0,-0.9956,-0.9927,-0.9916,-0.9905,-0.9869,-0.9864,-0.9848,-0.9823,-0.9811,-0.979,-0.9782,-0.976,-0.9748,-0.9732,-0.9704,-0.9696,-0.9689,-0.9672,-0.9677,-0.9678,-0.9678,-0.9679,-0.971,-0.967,-0.9669,-0.9669,-0.9669,0,-0.9975,-0.9969,-0.993,-0.9924,-0.9916,-0.9886,-0.9879,-0.9861,-0.9838,-0.9827,-0.98,-0.979,-0.9754,-0.974,-0.9718,-0.9707,-0.9701,-0.969,-0.9684,-0.9693,-0.9695,-0.9687,-0.9685,-0.967,-0.967,-0.967,-0.967,0,-1.001,-0.9983,-0.997,-0.9937,-0.9928,-0.9924,-0.9895,-0.9888,-0.9867,-0.9854,-0.9849,-0.9816,-0.9798,-0.9769,-0.9742,-0.9727,-0.972,-0.971,-0.9729,-0.9726,-0.9734,-0.9735,-0.9762,-0.9765,-0.9722,-0.9723,-0.9723,0,-1.0024,-1.0019,-0.9986,-0.9977,-0.9963,-0.9949,-0.9937,-0.9908,-0.9896,-0.9868,-0.9864,-0.9844,-0.9827,-0.9799,-0.9773,-0.9752,-0.9742,-0.9753,-0.9739,-0.9748,-0.9744,-0.9745,-0.9745,-0.9757,-0.9758,-0.9758,-0.9759,0,-1.0053,-1.0041,-1.0025,-1.0006,-0.9993,-0.9976,-0.9957,-0.9951,-0.9917,-0.9906,-0.9888,-0.9875,-0.9848,-0.9829,-0.9805,-0.9788,-0.9768,-0.9763,-0.9764,-0.9773,-0.9785,-0.978,-0.974,-0.9763,-0.9763,-0.9762,-0.9762,-0.9762,-1.0078,-1.0073,-1.005,-1.0034,-1.0017,-1.0,-0.9992,-0.9971,-0.9956,-0.9933,-0.9916,-0.99,-0.9875,-0.9841,-0.9825,-0.9811,-0.9802,-0.9803,-0.9803,-0.9804,-0.9808,-0.9787,-0.9807,-0.9806,-0.9806,-0.9806,-0.9806,0,-1.0107,-1.0091,-1.0077,-1.0052,-1.004,-1.0023,-1.0002,-0.9992,-0.9979,-0.9958,-0.9942,-0.9922,-0.9903,-0.9876,-0.9855,-0.985,-0.984,-0.9845,-0.9846,-0.9843,-0.9816,-0.9819,-0.9854,-0.9854,-0.9854,-0.9854,-0.9854,-0.9854,-1.0121,-1.0111,-1.0096,-1.0078,-1.0062,-1.0047,-1.0036,-1.0021,-1.0004,-0.9984,-0.9969,-0.9951,-0.9928,-0.9905,-0.9888,-0.988,-0.9874,-0.9883,-0.9872,-0.9849,-0.9844,-0.984,-0.9842,-0.9881,-0.9882,-0.99,-0.99,-0.99]}]]